This is the latest recevied weather packets stored in our database for station/object KB1ZFK. If no packets are shown the sender has not sent any weather packets the latest 10 day(s).
| Time | Temp. | Humidity | Pressure | Rain* | Wind** | Luminosity | Snow |
|---|---|---|---|---|---|---|---|
| 1777706378 | 7.22° C | 81% | 1011.6 hPa | 0 mm | - | 0 W/m² | - |
| 1777706076 | 7.78° C | 81% | 1011.4 hPa | 0 mm | - | 0 W/m² | - |
| 1777705774 | 7.78° C | 77% | 1011.6 hPa | 0 mm | - | 0 W/m² | - |
| 1777705472 | 7.78° C | 75% | 1011.6 hPa | 0 mm | - | 0 W/m² | - |
| 1777705170 | 7.78° C | 76% | 1011.6 hPa | 0 mm | - | 0 W/m² | - |
| 1777704868 | 7.78° C | 76% | 1011.6 hPa | 0 mm | - | 0 W/m² | - |
| 1777704566 | 7.78° C | 74% | 1011.8 hPa | 0 mm | - | 0 W/m² | - |
| 1777704264 | 8.33° C | 73% | 1011.8 hPa | 0 mm | - | 0 W/m² | - |
| 1777703961 | 7.78° C | 71% | 1011.8 hPa | 0 mm | - | 0 W/m² | - |
| 1777703658 | 7.78° C | 73% | 1012 hPa | 0 mm | - | 0 W/m² | - |
| 1777703356 | 7.22° C | 78% | 1011.8 hPa | 0 mm | - | 0 W/m² | - |
| 1777703053 | 7.22° C | 81% | 1011.9 hPa | 0 mm | - | 0 W/m² | - |
| 1777702752 | 7.78° C | 77% | 1011.9 hPa | 0 mm | - | 0 W/m² | - |
| 1777702449 | 7.78° C | 73% | 1011.7 hPa | 0 mm | - | 0 W/m² | - |
| 1777702145 | 7.78° C | 69% | 1011.8 hPa | 0 mm | - | 0 W/m² | - |
| 1777701840 | 7.78° C | 70% | 1012 hPa | 0 mm | - | 0 W/m² | - |
| 1777701537 | 6.11° C | 79% | 1012.1 hPa | 0 mm | - | 0 W/m² | - |
| 1777701235 | 6.67° C | 84% | 1012.1 hPa | 0 mm | - | 0 W/m² | - |
| 1777700935 | 6.11° C | 81% | 1011.9 hPa | 0 mm | - | 0 W/m² | - |
| 1777700631 | 6.11° C | 86% | 1012 hPa | 0 mm | - | 0 W/m² | - |
| 1777700329 | 6.11° C | 85% | 1011.7 hPa | 0 mm | - | 0 W/m² | - |
| 1777700026 | 6.67° C | 84% | 1011.6 hPa | 0 mm | - | 0 W/m² | - |
| 1777699724 | 6.67° C | 84% | 1011.5 hPa | 0 mm | - | 0 W/m² | - |
| 1777699422 | 6.67° C | 83% | 1011.2 hPa | 0 mm | - | 0 W/m² | - |
| 1777699119 | 6.67° C | 83% | 1011.3 hPa | 0 mm | - | 0 W/m² | - |
* Rain latest hour (hover to see other rain measurements)
** Current wind speed in m/s (hover to see current wind gust speed)